Overview Statistics Trail Chart Weather Telemetry Raw packets
 

This is the latest recevied weather packets stored in our database for station/object WA6OOO. If no packets are shown the sender has not sent any weather packets the latest 10 day(s).

<< 90 91 92 93 94 95 96 >>
Time Temp. Humidity Pressure Rain* Wind** Luminosity Snow
1788007371 20° C 88% 1015 hPa 0 mm - 0 W/m² -
1788007065 20.56° C 89% 1015 hPa 0 mm - 0 W/m² -
1788006763 20.56° C 89% 1015 hPa 0 mm - 0 W/m² -
1788006458 20.56° C 89% 1015 hPa 0 mm - 0 W/m² -
1788006158 20.56° C 88% 1014.9 hPa 0 mm - 0 W/m² -
1788005857 20.56° C 88% 1014.9 hPa 0 mm - 0 W/m² -
1788005552 20° C 87% 1014.9 hPa 0 mm - 0 W/m² -
1788005251 20° C 88% 1014.8 hPa 0 mm - 0 W/m² -
1788004950 20° C 88% 1014.7 hPa 0 mm - 0 W/m² -
1788004650 20° C 90% 1014.7 hPa 0 mm - 0 W/m² -
1788004345 20° C 91% 1014.9 hPa 0 mm - 0 W/m² -
1788004045 20° C 90% 1014.9 hPa 0 mm - 0 W/m² -
1788003743 20° C 90% 1015 hPa 0 mm - 0 W/m² -
1788003439 20° C 89% 1014.8 hPa 0 mm - 0 W/m² -
1788003133 20° C 89% 1014.8 hPa 0 mm - 0 W/m² -
1788002832 20° C 88% 1014.7 hPa 0 mm - 0 W/m² -
1788002528 20° C 88% 1014.8 hPa 0 mm - 0 W/m² -
1788002223 20° C 88% 1014.6 hPa 0 mm - 0 W/m² -
1788001917 20.56° C 88% 1014.6 hPa 0 mm - 0 W/m² -
1788001613 20.56° C 87% 1014.7 hPa 0 mm - 0 W/m² -
1788001307 20.56° C 87% 1014.7 hPa 0 mm - 0 W/m² -
1788001007 20.56° C 85% 1014.8 hPa 0 mm - 0 W/m² -
1788000702 21.11° C 83% 1014.7 hPa 0 mm - 0 W/m² -
1788000398 21.67° C 83% 1014.3 hPa 0 mm - 0 W/m² -
1788000097 22.22° C 81% 1014.2 hPa 0 mm - 0 W/m² -

* Rain latest hour (hover to see other rain measurements)
** Current wind speed in m/s (hover to see current wind gust speed)